M I D A S
Marine Information and Data Acquisition System
Tripno 905 of the Zeeleeuw from 2005-05-26 06:19:52 to 2005-05-26 13:04:20
Back to CruiseResearch ActivitiesStationsMapUnderway DataData graphs

EquipmentUnitsComments
TimeDGPSUTC
LatitudeDGPSDM.mWGS84
LongitudeDGPSDM.mWGS84
SpeedMeteo Stationm/sRelative wind speed
DirectionMeteo StationdegRelative wind direction
TemperatureMeteo Stationdeg CelciusAir temperature
PressureMeteo StationPaAtmospheric pressure
HumidityMeteo Station%Relative humidity
Missing or incorrect values are displayed as -999
Metereological data collected by the RV Zeeleeuw from 2005-05-26 06:20:44 to 2005-05-26 13:17:14
                                                                                    Next 1000 lines
Time Latitude Longitude Speed Direction Temperature Pressure Humidity
2005-05-26 06:20:54 51°13.598 2°56.103 3 65 18 101680 68
2005-05-26 06:20:58 51°13.599 2°56.1 3 83 18 101680 68
2005-05-26 06:21:04 51°13.601 2°56.096 2.4 69 18 101680 68
2005-05-26 06:21:08 51°13.602 2°56.091 3.1 63 18 101680 68
2005-05-26 06:21:14 51°13.603 2°56.086 3.5 60 18 101680 68
2005-05-26 06:21:20 51°13.605 2°56.079 4.3 66 18 101680 68
2005-05-26 06:21:24 51°13.607 2°56.073 3.5 51 18 101680 68
2005-05-26 06:21:29 51°13.609 2°56.067 3.3 83 18 101680 68
2005-05-26 06:21:34 51°13.611 2°56.061 3.1 77 18 101680 68
2005-05-26 06:21:39 51°13.613 2°56.054 3.5 63 18 101680 68
2005-05-26 06:21:44 51°13.615 2°56.046 3.2 75 18 101680 68
2005-05-26 06:21:49 51°13.617 2°56.04 2.4 112 18 101680 68
2005-05-26 06:21:54 51°13.619 2°56.032 2.7 105 18 101680 68
2005-05-26 06:21:59 51°13.622 2°56.023 3.7 92 18 101680 68
2005-05-26 06:22:04 51°13.624 2°56.015 3.8 106 18 101680 68
2005-05-26 06:22:09 51°13.625 2°56.008 2.8 132 18 101680 68
2005-05-26 06:22:14 51°13.627 2°56.002 4 98 18.1 101680 68
2005-05-26 06:22:19 51°13.628 2°55.997 5.3 84 18.1 101680 68
2005-05-26 06:22:24 51°13.629 2°55.994 5.8 94 18.1 101680 68
2005-05-26 06:22:30 51°13.63 2°55.992 4.7 71 18.1 101680 68
2005-05-26 06:22:34 51°13.63 2°55.991 4.6 58 18.1 101680 68
2005-05-26 06:22:39 51°13.631 2°55.99 4.7 72 18.1 101680 68
2005-05-26 06:22:44 51°13.632 2°55.987 3.7 74 18.1 101680 67
2005-05-26 06:22:49 51°13.633 2°55.984 3.1 101 18.1 101680 67
2005-05-26 06:22:54 51°13.634 2°55.98 2.5 82 18.1 101670 67
2005-05-26 06:22:59 51°13.636 2°55.974 3.9 74 18.1 101670 67
2005-05-26 06:23:04 51°13.638 2°55.969 3.2 64 18.1 101670 67
2005-05-26 06:23:09 51°13.639 2°55.963 2.9 78 18.1 101670 67
2005-05-26 06:23:14 51°13.641 2°55.956 3 60 18.1 101680 67
2005-05-26 06:23:20 51°13.643 2°55.948 3.6 57 18.1 101680 67
2005-05-26 06:23:24 51°13.645 2°55.942 3.3 65 18.1 101670 68
2005-05-26 06:23:29 51°13.647 2°55.934 4.5 59 18.1 101670 68
2005-05-26 06:23:34 51°13.649 2°55.927 4.9 42 18.1 101680 68
2005-05-26 06:23:40 51°13.653 2°55.917 4 116 18.1 101680 68
2005-05-26 06:23:44 51°13.655 2°55.909 3.4 65 18.1 101680 68
2005-05-26 06:23:49 51°13.658 2°55.9 2.6 68 18.1 101680 68
2005-05-26 06:23:54 51°13.66 2°55.891 1.6 228 18.1 101670 67
2005-05-26 06:23:59 51°13.663 2°55.88 1.8 161 18.1 101670 67
2005-05-26 06:24:04 51°13.666 2°55.871 1.7 151 18.1 101680 67
2005-05-26 06:24:09 51°13.669 2°55.86 1.9 121 18.1 101680 67
2005-05-26 06:24:14 51°13.672 2°55.851 1.9 146 18.2 101670 68
2005-05-26 06:24:19 51°13.676 2°55.84 1.7 129 18.2 101670 68
2005-05-26 06:24:24 51°13.68 2°55.83 2.5 109 18.2 101680 67
2005-05-26 06:24:29 51°13.683 2°55.82 3.5 90 18.2 101680 67
2005-05-26 06:24:34 51°13.687 2°55.81 2.1 126 18.2 101680 67
2005-05-26 06:24:39 51°13.692 2°55.799 3.3 127 18.2 101680 67
2005-05-26 06:24:44 51°13.696 2°55.788 2.9 115 18.2 101680 67
2005-05-26 06:24:49 51°13.701 2°55.779 2.9 93 18.2 101680 67
2005-05-26 06:24:54 51°13.706 2°55.769 2 125 18.2 101680 67
2005-05-26 06:24:59 51°13.711 2°55.758 1.7 130 18.2 101680 67
2005-05-26 06:25:04 51°13.716 2°55.749 1.6 111 18.2 101680 67
2005-05-26 06:25:09 51°13.722 2°55.74 2.8 116 18.2 101680 67
2005-05-26 06:25:14 51°13.727 2°55.731 3.2 99 18.3 101680 67
2005-05-26 06:25:19 51°13.734 2°55.721 2.2 79 18.3 101680 67
2005-05-26 06:25:24 51°13.74 2°55.712 2 86 18.3 101680 67
2005-05-26 06:25:29 51°13.746 2°55.705 2.2 78 18.3 101680 67
2005-05-26 06:25:34 51°13.752 2°55.696 2.6 77 18.3 101670 67
2005-05-26 06:25:39 51°13.76 2°55.688 3.9 60 18.3 101670 67
2005-05-26 06:25:44 51°13.768 2°55.68 3.1 51 18.3 101680 67
2005-05-26 06:25:49 51°13.775 2°55.673 3.6 42 18.3 101680 67
2005-05-26 06:25:54 51°13.782 2°55.667 4.1 40 18.3 101670 66
2005-05-26 06:26:00 51°13.791 2°55.66 3.7 58 18.3 101670 66
2005-05-26 06:26:04 51°13.799 2°55.656 3.7 21 18.3 101680 66
2005-05-26 06:26:09 51°13.807 2°55.651 3.2 23 18.3 101680 66
2005-05-26 06:26:14 51°13.814 2°55.647 3 357 18.3 101670 66
2005-05-26 06:26:19 51°13.823 2°55.644 2.3 7 18.3 101670 66
2005-05-26 06:26:24 51°13.832 2°55.641 2.7 346 18.3 101670 66
2005-05-26 06:26:29 51°13.84 2°55.639 3.3 333 18.3 101670 66
2005-05-26 06:26:34 51°13.848 2°55.638 3.3 346 18.3 101670 66
2005-05-26 06:26:39 51°13.858 2°55.637 3.2 337 18.3 101670 66
2005-05-26 06:26:44 51°13.866 2°55.637 3.6 334 18.3 101670 66
2005-05-26 06:26:49 51°13.874 2°55.637 2.9 349 18.3 101670 66
2005-05-26 06:26:54 51°13.881 2°55.639 3.9 353 18.3 101670 66
2005-05-26 06:26:59 51°13.89 2°55.641 3.1 340 18.3 101670 66
2005-05-26 06:27:04 51°13.897 2°55.643 3.1 357 18.3 101670 66
2005-05-26 06:27:10 51°13.905 2°55.646 3.4 336 18.3 101670 66
2005-05-26 06:27:14 51°13.91 2°55.648 2.8 331 18.3 101670 66
2005-05-26 06:27:19 51°13.916 2°55.651 3.8 337 18.3 101670 66
2005-05-26 06:27:24 51°13.922 2°55.654 3.2 327 18.4 101670 66
2005-05-26 06:27:28 51°13.926 2°55.657 2.9 309 18.4 101670 66
2005-05-26 06:27:34 51°13.93 2°55.659 2.3 287 18.4 101670 66
2005-05-26 06:27:39 51°13.932 2°55.66 3 227 18.4 101670 66
2005-05-26 06:27:43 51°13.934 2°55.661 3.3 231 18.4 101670 66
2005-05-26 06:27:48 51°13.935 2°55.66 3.9 306 18.4 101670 66
2005-05-26 06:27:54 51°13.934 2°55.657 3 316 18.4 101670 66
2005-05-26 06:27:59 51°13.933 2°55.653 2.8 296 18.4 101670 66
2005-05-26 06:28:04 51°13.933 2°55.647 4.2 308 18.4 101670 66
2005-05-26 06:28:08 51°13.932 2°55.64 4.5 298 18.4 101670 66
2005-05-26 06:28:14 51°13.933 2°55.631 5.5 291 18.4 101670 66
2005-05-26 06:28:18 51°13.934 2°55.622 5.6 278 18.4 101670 66
2005-05-26 06:28:24 51°13.936 2°55.611 6.4 270 18.4 101660 66
2005-05-26 06:28:29 51°13.94 2°55.601 4.1 266 18.4 101660 66
2005-05-26 06:28:34 51°13.944 2°55.592 3.8 254 18.4 101670 66
2005-05-26 06:28:39 51°13.95 2°55.582 3.4 251 18.4 101670 66
2005-05-26 06:28:44 51°13.955 2°55.574 3.9 237 18.5 101670 66
2005-05-26 06:28:49 51°13.961 2°55.565 3.4 243 18.5 101670 66
2005-05-26 06:28:54 51°13.967 2°55.557 2.5 246 18.5 101670 66
2005-05-26 06:28:58 51°13.973 2°55.551 2.1 253 18.5 101670 66
2005-05-26 06:29:04 51°13.981 2°55.54 2.1 245 18.5 101670 66
2005-05-26 06:29:09 51°13.989 2°55.532 1.1 233 18.5 101670 66
2005-05-26 06:29:14 51°13.997 2°55.524 1.6 232 18.5 101670 66
2005-05-26 06:29:19 51°14.005 2°55.517 1.1 230 18.5 101670 66
2005-05-26 06:29:23 51°14.012 2°55.51 0.5 220 18.5 101670 65
2005-05-26 06:29:28 51°14.021 2°55.503 1.5 125 18.5 101670 65
2005-05-26 06:29:34 51°14.031 2°55.495 1.7 122 18.5 101670 66
2005-05-26 06:29:39 51°14.04 2°55.487 0.8 109 18.5 101670 66
2005-05-26 06:29:44 51°14.048 2°55.48 1.2 127 18.5 101670 66
2005-05-26 06:29:49 51°14.058 2°55.473 1.4 246 18.5 101670 66
2005-05-26 06:29:54 51°14.067 2°55.465 2 202 18.5 101670 66
2005-05-26 06:29:59 51°14.077 2°55.458 1.4 202 18.5 101670 66
2005-05-26 06:30:04 51°14.087 2°55.45 1.6 211 18.5 101670 66
2005-05-26 06:30:09 51°14.098 2°55.443 1.6 223 18.5 101670 66
2005-05-26 06:30:14 51°14.108 2°55.434 0.9 235 18.6 101670 66
2005-05-26 06:30:18 51°14.117 2°55.428 1 255 18.6 101670 66
2005-05-26 06:30:24 51°14.13 2°55.417 1.2 256 18.6 101670 66
2005-05-26 06:30:29 51°14.141 2°55.408 0.8 254 18.6 101670 66
2005-05-26 06:30:34 51°14.152 2°55.399 0.8 257 18.6 101670 66
2005-05-26 06:30:38 51°14.161 2°55.391 0.7 293 18.6 101670 66
2005-05-26 06:30:44 51°14.174 2°55.38 1.1 330 18.6 101670 66
2005-05-26 06:30:48 51°14.184 2°55.371 1 354 18.6 101670 66
2005-05-26 06:30:53 51°14.194 2°55.362 1.6 339 18.6 101670 66
2005-05-26 06:30:59 51°14.207 2°55.349 1.4 340 18.6 101670 66
2005-05-26 06:31:04 51°14.219 2°55.337 1.6 42 18.6 101670 66
2005-05-26 06:31:09 51°14.229 2°55.326 1.9 313 18.6 101670 66
2005-05-26 06:31:13 51°14.239 2°55.316 2.1 312 18.6 101670 66
2005-05-26 06:31:19 51°14.25 2°55.302 2.1 310 18.6 101670 66
2005-05-26 06:31:24 51°14.261 2°55.29 2.1 314 18.7 101660 66
2005-05-26 06:31:29 51°14.271 2°55.276 2.2 335 18.7 101660 66
2005-05-26 06:31:34 51°14.281 2°55.262 1.7 338 18.7 101660 65
2005-05-26 06:31:38 51°14.289 2°55.251 2.6 310 18.7 101660 65
2005-05-26 06:31:44 51°14.3 2°55.233 3.9 324 18.7 101670 65
2005-05-26 06:31:48 51°14.308 2°55.219 2.6 289 18.7 101670 65
2005-05-26 06:31:54 51°14.318 2°55.201 4.5 285 18.7 101670 65
2005-05-26 06:31:59 51°14.327 2°55.182 4.7 277 18.7 101670 65
2005-05-26 06:32:04 51°14.336 2°55.166 3.2 316 18.7 101660 65
2005-05-26 06:32:08 51°14.344 2°55.15 2.3 276 18.7 101660 65
2005-05-26 06:32:14 51°14.354 2°55.13 1.9 284 18.7 101660 65
2005-05-26 06:32:19 51°14.363 2°55.11 4 281 18.7 101660 65
2005-05-26 06:32:24 51°14.372 2°55.091 4.4 300 18.7 101660 65
2005-05-26 06:32:28 51°14.38 2°55.072 4.1 318 18.7 101660 65
2005-05-26 06:32:34 51°14.39 2°55.049 4.8 296 18.8 101660 65
2005-05-26 06:32:38 51°14.397 2°55.032 6.7 289 18.8 101660 65
2005-05-26 06:32:44 51°14.407 2°55.007 7.3 285 18.8 101660 65
2005-05-26 06:32:49 51°14.416 2°54.985 8.1 269 18.8 101660 65
2005-05-26 06:32:54 51°14.426 2°54.964 6.2 281 18.8 101660 65
2005-05-26 06:32:59 51°14.436 2°54.943 5.2 278 18.8 101660 65
2005-05-26 06:33:04 51°14.445 2°54.923 4.7 283 18.8 101660 64
2005-05-26 06:33:09 51°14.456 2°54.902 4.1 302 18.8 101660 64
2005-05-26 06:33:14 51°14.466 2°54.882 4.9 308 18.8 101650 64
2005-05-26 06:33:19 51°14.477 2°54.863 5.6 290 18.8 101650 64
2005-05-26 06:33:24 51°14.488 2°54.843 5.9 279 18.8 101650 64
2005-05-26 06:33:28 51°14.498 2°54.826 4.1 263 18.8 101650 64
2005-05-26 06:33:34 51°14.511 2°54.806 4.7 273 18.8 101660 64
2005-05-26 06:33:39 51°14.524 2°54.787 4.9 301 18.8 101660 64
2005-05-26 06:33:44 51°14.537 2°54.769 4.8 293 18.8 101660 64
2005-05-26 06:33:49 51°14.55 2°54.75 5.2 280 18.8 101660 64
2005-05-26 06:33:54 51°14.564 2°54.732 4.4 266 18.8 101660 64
2005-05-26 06:33:59 51°14.578 2°54.714 4.1 286 18.8 101660 64
2005-05-26 06:34:04 51°14.593 2°54.696 5.7 287 18.8 101650 64
2005-05-26 06:34:08 51°14.606 2°54.679 5.4 287 18.8 101650 64
2005-05-26 06:34:14 51°14.622 2°54.659 6.8 276 18.8 101650 64
2005-05-26 06:34:19 51°14.636 2°54.641 6.7 280 18.8 101650 64
2005-05-26 06:34:23 51°14.649 2°54.624 6.1 276 18.8 101660 64
2005-05-26 06:34:28 51°14.663 2°54.604 5.6 270 18.8 101660 64
2005-05-26 06:34:34 51°14.679 2°54.583 4.7 268 18.8 101650 64
2005-05-26 06:34:39 51°14.695 2°54.562 4.8 270 18.8 101650 64
2005-05-26 06:34:44 51°14.708 2°54.544 4.7 279 18.8 101650 64
2005-05-26 06:34:49 51°14.723 2°54.524 4 284 18.8 101650 64
2005-05-26 06:34:54 51°14.737 2°54.504 5 286 18.8 101650 64
2005-05-26 06:34:59 51°14.752 2°54.484 6.2 276 18.8 101650 64
2005-05-26 06:35:04 51°14.766 2°54.465 5.4 276 18.8 101650 64
2005-05-26 06:35:08 51°14.78 2°54.448 3.8 247 18.8 101650 64
2005-05-26 06:35:14 51°14.796 2°54.427 4.8 260 18.8 101650 64
2005-05-26 06:35:19 51°14.812 2°54.409 2.7 255 18.8 101650 64
2005-05-26 06:35:24 51°14.829 2°54.389 2.3 257 18.8 101650 64
2005-05-26 06:35:28 51°14.841 2°54.375 3.3 263 18.8 101650 64
2005-05-26 06:35:34 51°14.859 2°54.356 3.5 266 18.8 101650 63
2005-05-26 06:35:39 51°14.874 2°54.339 3.8 292 18.8 101650 63
2005-05-26 06:35:44 51°14.89 2°54.323 3.7 287 18.8 101650 63
2005-05-26 06:35:49 51°14.905 2°54.307 3.3 260 18.8 101650 63
2005-05-26 06:35:54 51°14.921 2°54.291 2.4 255 18.8 101650 64
2005-05-26 06:35:59 51°14.936 2°54.275 3.8 246 18.8 101650 64
2005-05-26 06:36:04 51°14.952 2°54.259 3.2 251 18.8 101650 64
2005-05-26 06:36:09 51°14.967 2°54.244 3.9 256 18.8 101650 64
2005-05-26 06:36:14 51°14.983 2°54.228 3.7 248 18.7 101660 64
2005-05-26 06:36:19 51°14.998 2°54.212 4 266 18.7 101660 64
2005-05-26 06:36:24 51°15.013 2°54.196 3.8 261 18.7 101650 64
2005-05-26 06:36:29 51°15.028 2°54.18 3.9 266 18.7 101650 64
2005-05-26 06:36:34 51°15.044 2°54.165 3.4 262 18.7 101650 64
2005-05-26 06:36:39 51°15.059 2°54.149 4 267 18.7 101650 64
2005-05-26 06:36:44 51°15.075 2°54.134 3.7 262 18.7 101660 64
2005-05-26 06:36:48 51°15.089 2°54.121 3.2 276 18.7 101660 64
2005-05-26 06:36:54 51°15.106 2°54.103 3.6 262 18.7 101650 64
2005-05-26 06:36:59 51°15.121 2°54.086 5.6 270 18.7 101650 64
2005-05-26 06:37:04 51°15.136 2°54.068 5.5 274 18.7 101650 64
2005-05-26 06:37:09 51°15.15 2°54.05 4.7 264 18.7 101650 64
2005-05-26 06:37:14 51°15.165 2°54.031 5.4 274 18.7 101660 64
2005-05-26 06:37:18 51°15.177 2°54.016 5.2 278 18.7 101660 64
2005-05-26 06:37:24 51°15.194 2°53.993 4.8 276 18.6 101650 64
2005-05-26 06:37:28 51°15.208 2°53.978 4.2 262 18.6 101650 64
2005-05-26 06:37:34 51°15.225 2°53.959 3.5 266 18.6 101650 64
2005-05-26 06:37:39 51°15.241 2°53.943 2.6 262 18.6 101650 64
2005-05-26 06:37:44 51°15.258 2°53.929 3.3 275 18.6 101650 64
2005-05-26 06:37:49 51°15.275 2°53.916 2.8 285 18.6 101650 64
2005-05-26 06:37:54 51°15.292 2°53.903 2.3 270 18.6 101650 65
2005-05-26 06:37:59 51°15.309 2°53.89 2.6 266 18.6 101650 65
2005-05-26 06:38:04 51°15.327 2°53.878 2.3 264 18.6 101650 65
2005-05-26 06:38:08 51°15.342 2°53.867 1.6 259 18.6 101650 65
2005-05-26 06:38:14 51°15.361 2°53.852 2.9 267 18.6 101660 65
2005-05-26 06:38:19 51°15.378 2°53.838 3.7 272 18.6 101660 65
2005-05-26 06:38:23 51°15.393 2°53.825 3.7 278 18.6 101650 65
2005-05-26 06:38:29 51°15.412 2°53.807 4.4 271 18.6 101650 65
2005-05-26 06:38:34 51°15.429 2°53.791 4.1 276 18.5 101650 65
2005-05-26 06:38:39 51°15.445 2°53.775 3.6 263 18.5 101650 65
2005-05-26 06:38:44 51°15.462 2°53.758 4.6 270 18.5 101650 65
2005-05-26 06:38:48 51°15.477 2°53.744 3.9 264 18.5 101650 65
2005-05-26 06:38:53 51°15.494 2°53.728 2.2 261 18.5 101650 65
2005-05-26 06:38:59 51°15.512 2°53.71 3.1 272 18.5 101650 65
2005-05-26 06:39:04 51°15.529 2°53.695 2.8 261 18.5 101650 65
2005-05-26 06:39:09 51°15.546 2°53.679 3.1 261 18.5 101650 65
2005-05-26 06:39:14 51°15.564 2°53.664 3.2 262 18.5 101650 65
2005-05-26 06:39:18 51°15.577 2°53.652 3.9 264 18.5 101650 65
2005-05-26 06:39:24 51°15.597 2°53.633 4.4 265 18.5 101650 65
2005-05-26 06:39:29 51°15.614 2°53.617 2.7 262 18.5 101650 65
2005-05-26 06:39:34 51°15.631 2°53.601 3.7 263 18.5 101650 65
2005-05-26 06:39:38 51°15.645 2°53.587 3.3 273 18.5 101650 65
2005-05-26 06:39:44 51°15.664 2°53.567 3.3 263 18.5 101650 65
2005-05-26 06:39:48 51°15.678 2°53.552 2.8 263 18.5 101650 65
2005-05-26 06:39:54 51°15.697 2°53.534 2.4 256 18.5 101650 65
2005-05-26 06:39:59 51°15.713 2°53.518 3.8 269 18.5 101650 65
2005-05-26 06:40:04 51°15.73 2°53.501 3.5 265 18.5 101650 65
2005-05-26 06:40:08 51°15.744 2°53.487 2.5 261 18.5 101650 65
2005-05-26 06:40:13 51°15.761 2°53.471 2.3 260 18.4 101650 66
2005-05-26 06:40:19 51°15.78 2°53.453 3.1 263 18.4 101650 66
2005-05-26 06:40:23 51°15.795 2°53.439 2.6 262 18.4 101650 66
2005-05-26 06:40:29 51°15.814 2°53.423 2.9 268 18.4 101650 66
2005-05-26 06:40:34 51°15.831 2°53.407 3 270 18.4 101650 66
2005-05-26 06:40:39 51°15.848 2°53.391 2.9 265 18.4 101650 66
2005-05-26 06:40:44 51°15.864 2°53.375 2.2 262 18.4 101650 66
2005-05-26 06:40:48 51°15.879 2°53.36 2 261 18.4 101650 66
2005-05-26 06:40:54 51°15.897 2°53.342 2.5 261 18.4 101650 66
2005-05-26 06:40:59 51°15.914 2°53.327 3 274 18.4 101650 66
2005-05-26 06:41:04 51°15.931 2°53.311 2.8 276 18.4 101650 66
2005-05-26 06:41:08 51°15.945 2°53.298 2.8 267 18.4 101650 66
2005-05-26 06:41:14 51°15.964 2°53.282 2.1 260 18.4 101650 66
2005-05-26 06:41:19 51°15.981 2°53.267 2.4 263 18.4 101650 66
2005-05-26 06:41:24 51°15.998 2°53.253 2.6 265 18.3 101650 66
2005-05-26 06:41:29 51°16.015 2°53.238 2.4 272 18.3 101650 66
2005-05-26 06:41:34 51°16.032 2°53.223 3.2 269 18.3 101650 66
2005-05-26 06:41:39 51°16.05 2°53.207 3 266 18.3 101650 66
2005-05-26 06:41:44 51°16.066 2°53.194 3.1 267 18.3 101650 66
2005-05-26 06:41:49 51°16.083 2°53.179 2.5 273 18.3 101650 66
2005-05-26 06:41:54 51°16.099 2°53.164 2.8 267 18.3 101650 66
2005-05-26 06:41:59 51°16.116 2°53.15 2.7 272 18.3 101650 66
2005-05-26 06:42:04 51°16.135 2°53.134 2.3 263 18.3 101650 67
2005-05-26 06:42:09 51°16.15 2°53.122 2.7 269 18.3 101650 67
2005-05-26 06:42:13 51°16.167 2°53.11 1.8 260 18.3 101650 67
2005-05-26 06:42:19 51°16.186 2°53.095 2.3 265 18.3 101650 67
2005-05-26 06:42:24 51°16.204 2°53.082 1.5 258 18.3 101650 67
2005-05-26 06:42:29 51°16.221 2°53.069 1.6 263 18.3 101650 67
2005-05-26 06:42:34 51°16.239 2°53.056 1.8 257 18.3 101650 67
2005-05-26 06:42:39 51°16.256 2°53.043 1.6 251 18.3 101650 67
2005-05-26 06:42:43 51°16.272 2°53.031 1.9 259 18.2 101650 67
2005-05-26 06:42:48 51°16.29 2°53.017 2 277 18.2 101650 67
2005-05-26 06:42:54 51°16.31 2°53.002 2.2 268 18.2 101650 67
2005-05-26 06:42:59 51°16.327 2°52.988 2.5 264 18.2 101650 67
2005-05-26 06:43:04 51°16.345 2°52.975 2.5 264 18.2 101650 67
2005-05-26 06:43:09 51°16.362 2°52.962 2.3 253 18.2 101650 67
2005-05-26 06:43:14 51°16.38 2°52.948 2.4 270 18.2 101650 67
2005-05-26 06:43:19 51°16.398 2°52.935 2.4 263 18.2 101650 67
2005-05-26 06:43:24 51°16.416 2°52.922 2.1 263 18.2 101650 67
2005-05-26 06:43:28 51°16.432 2°52.911 2 262 18.2 101650 67
2005-05-26 06:43:34 51°16.452 2°52.896 1.8 276 18.2 101650 67
2005-05-26 06:43:38 51°16.466 2°52.886 2.3 265 18.2 101650 67
2005-05-26 06:43:44 51°16.487 2°52.871 1.7 277 18.2 101650 67
2005-05-26 06:43:49 51°16.505 2°52.858 2.1 265 18.2 101650 67
2005-05-26 06:43:54 51°16.522 2°52.845 2.4 267 18.2 101650 67
2005-05-26 06:43:59 51°16.54 2°52.832 2.5 272 18.2 101650 67
2005-05-26 06:44:04 51°16.558 2°52.819 2.4 263 18.2 101650 67
2005-05-26 06:44:09 51°16.576 2°52.806 2.4 264 18.2 101650 67
2005-05-26 06:44:14 51°16.594 2°52.793 2.3 272 18.2 101650 67
2005-05-26 06:44:19 51°16.613 2°52.778 2.5 276 18.2 101650 67
2005-05-26 06:44:24 51°16.629 2°52.766 2.2 269 18.2 101650 67
2005-05-26 06:44:29 51°16.646 2°52.753 1.7 293 18.2 101650 67
2005-05-26 06:44:33 51°16.66 2°52.743 2.6 272 18.2 101650 67
2005-05-26 06:44:37 51°16.675 2°52.731 1.8 268 18.2 101650 67
2005-05-26 06:44:44 51°16.698 2°52.715 2.4 275 18.2 101650 67
2005-05-26 06:44:49 51°16.717 2°52.701 2.5 273 18.2 101650 67
2005-05-26 06:44:54 51°16.733 2°52.689 2.1 267 18.2 101650 67
2005-05-26 06:44:59 51°16.75 2°52.676 1.8 268 18.2 101650 67
2005-05-26 06:45:04 51°16.767 2°52.663 2.3 264 18.2 101660 67
2005-05-26 06:45:09 51°16.784 2°52.651 2.1 280 18.2 101660 67
2005-05-26 06:45:13 51°16.798 2°52.641 2.4 275 18.1 101650 67
2005-05-26 06:45:19 51°16.818 2°52.626 2.1 286 18.1 101650 67
2005-05-26 06:45:24 51°16.836 2°52.613 2.8 268 18.1 101650 67
2005-05-26 06:45:28 51°16.851 2°52.601 2.1 283 18.1 101650 67
2005-05-26 06:45:34 51°16.869 2°52.587 3.1 272 18.2 101650 67
2005-05-26 06:45:39 51°16.888 2°52.572 2.5 265 18.2 101650 67
2005-05-26 06:45:44 51°16.903 2°52.56 2.4 273 18.1 101650 67
2005-05-26 06:45:49 51°16.92 2°52.546 2.5 279 18.1 101650 67
2005-05-26 06:45:54 51°16.937 2°52.531 2.7 274 18.1 101650 67
2005-05-26 06:45:59 51°16.953 2°52.517 2.4 276 18.1 101650 67
2005-05-26 06:46:04 51°16.971 2°52.504 1.7 262 18.1 101650 68
2005-05-26 06:46:09 51°16.988 2°52.491 2.4 265 18.1 101650 68
2005-05-26 06:46:14 51°17.005 2°52.479 1.4 256 18.1 101650 68
2005-05-26 06:46:18 51°17.019 2°52.47 1.2 255 18.1 101650 68
2005-05-26 06:46:24 51°17.04 2°52.457 1.1 254 18.1 101650 68
2005-05-26 06:46:29 51°17.057 2°52.447 1.2 256 18.1 101650 68
2005-05-26 06:46:34 51°17.075 2°52.436 1.5 281 18.1 101650 68
2005-05-26 06:46:38 51°17.089 2°52.427 2 282 18.1 101650 68
2005-05-26 06:46:44 51°17.11 2°52.413 1.8 276 18.1 101650 68
2005-05-26 06:46:48 51°17.125 2°52.401 2.6 271 18.1 101650 68
2005-05-26 06:46:54 51°17.144 2°52.386 2.8 270 18.1 101650 68
2005-05-26 06:46:59 51°17.161 2°52.372 2.9 279 18.1 101650 68
2005-05-26 06:47:04 51°17.178 2°52.357 3 279 18.1 101650 68
2005-05-26 06:47:08 51°17.193 2°52.344 2.7 291 18.1 101650 68
2005-05-26 06:47:14 51°17.212 2°52.327 2.5 290 18.1 101650 68
2005-05-26 06:47:19 51°17.228 2°52.312 2.4 287 18.1 101650 68
2005-05-26 06:47:23 51°17.243 2°52.298 2.6 303 18 101650 68
2005-05-26 06:47:29 51°17.262 2°52.282 2.6 290 18 101650 68
2005-05-26 06:47:34 51°17.28 2°52.268 2.7 286 18.1 101650 68
2005-05-26 06:47:39 51°17.297 2°52.254 2 300 18.1 101650 68
2005-05-26 06:47:44 51°17.314 2°52.24 2.2 292 18 101650 68
2005-05-26 06:47:49 51°17.331 2°52.227 2.2 302 18 101650 68
2005-05-26 06:47:54 51°17.349 2°52.214 2.1 295 18 101660 68
2005-05-26 06:47:59 51°17.366 2°52.201 2 303 18 101660 68
2005-05-26 06:48:04 51°17.384 2°52.187 2.3 297 18 101650 68
2005-05-26 06:48:09 51°17.401 2°52.173 2.3 300 18 101650 68
2005-05-26 06:48:14 51°17.418 2°52.158 2.7 295 18 101650 68
2005-05-26 06:48:19 51°17.434 2°52.143 2.8 299 18 101650 68
2005-05-26 06:48:24 51°17.451 2°52.127 2.9 292 18 101650 68
2005-05-26 06:48:28 51°17.466 2°52.113 3.1 296 18 101650 68
2005-05-26 06:48:34 51°17.484 2°52.095 3.2 291 17.9 101660 68
2005-05-26 06:48:39 51°17.502 2°52.077 3.2 294 17.9 101660 68
2005-05-26 06:48:44 51°17.516 2°52.062 3.1 291 18 101650 68
2005-05-26 06:48:49 51°17.533 2°52.046 2.8 289 18 101650 68
2005-05-26 06:48:54 51°17.549 2°52.031 2.7 287 17.9 101650 68
2005-05-26 06:48:59 51°17.565 2°52.016 2.7 293 17.9 101650 68
2005-05-26 06:49:04 51°17.582 2°52.001 2.7 298 17.9 101650 68
2005-05-26 06:49:08 51°17.597 2°51.988 2.8 287 17.9 101650 68
2005-05-26 06:49:14 51°17.615 2°51.971 2.6 284 17.9 101650 68
2005-05-26 06:49:19 51°17.632 2°51.956 2.8 292 17.9 101650 68
2005-05-26 06:49:24 51°17.649 2°51.938 3 293 17.9 101650 69
2005-05-26 06:49:28 51°17.662 2°51.925 3.5 285 17.9 101650 69
2005-05-26 06:49:34 51°17.679 2°51.906 3.6 294 17.8 101650 69
2005-05-26 06:49:39 51°17.695 2°51.887 3.6 283 17.8 101650 69
2005-05-26 06:49:44 51°17.71 2°51.869 3.3 304 17.8 101650 69
2005-05-26 06:49:48 51°17.724 2°51.852 3.5 295 17.8 101650 69
2005-05-26 06:49:54 51°17.741 2°51.832 3.5 291 17.8 101650 69
2005-05-26 06:49:59 51°17.758 2°51.811 3.7 289 17.8 101650 69
2005-05-26 06:50:04 51°17.771 2°51.794 3.5 288 17.8 101650 69
2005-05-26 06:50:09 51°17.786 2°51.775 4 298 17.8 101650 69
2005-05-26 06:50:14 51°17.801 2°51.756 3.9 286 17.8 101650 69
2005-05-26 06:50:19 51°17.818 2°51.735 3.6 298 17.8 101650 69
2005-05-26 06:50:24 51°17.831 2°51.718 3.9 297 17.8 101650 69
2005-05-26 06:50:29 51°17.846 2°51.7 4.2 291 17.8 101650 69
2005-05-26 06:50:34 51°17.861 2°51.681 3.8 302 17.7 101650 69
2005-05-26 06:50:39 51°17.876 2°51.661 4 287 17.7 101650 69
2005-05-26 06:50:44 51°17.891 2°51.64 4.5 289 17.7 101660 69
2005-05-26 06:50:48 51°17.904 2°51.622 4.4 295 17.7 101660 69
2005-05-26 06:50:54 51°17.92 2°51.598 2.6 294 17.7 101660 69
2005-05-26 06:50:58 51°17.931 2°51.581 4.5 295 17.7 101660 69
2005-05-26 06:51:04 51°17.949 2°51.556 4.4 297 17.7 101650 69
2005-05-26 06:51:09 51°17.963 2°51.535 4.5 300 17.7 101650 69
2005-05-26 06:51:13 51°17.976 2°51.516 4.6 295 17.6 101660 69
2005-05-26 06:51:18 51°17.989 2°51.497 4.4 292 17.6 101660 69
2005-05-26 06:51:24 51°18.007 2°51.472 4.4 294 17.6 101650 70
2005-05-26 06:51:28 51°18.021 2°51.454 4.2 292 17.6 101650 70
2005-05-26 06:51:34 51°18.037 2°51.431 4 295 17.6 101660 70
2005-05-26 06:51:39 51°18.052 2°51.41 4.6 297 17.6 101660 70
2005-05-26 06:51:44 51°18.067 2°51.389 4.5 292 17.6 101650 70
2005-05-26 06:51:49 51°18.083 2°51.366 4.4 292 17.6 101650 70
2005-05-26 06:51:54 51°18.096 2°51.347 4.2 298 17.5 101650 70
2005-05-26 06:51:58 51°18.108 2°51.33 4 296 17.5 101650 70
2005-05-26 06:52:04 51°18.126 2°51.304 4.3 300 17.5 101660 70
2005-05-26 06:52:08 51°18.139 2°51.284 5 306 17.5 101660 70
2005-05-26 06:52:14 51°18.155 2°51.261 4.6 296 17.5 101650 70
2005-05-26 06:52:19 51°18.171 2°51.237 4.7 303 17.5 101650 70
2005-05-26 06:52:24 51°18.184 2°51.218 4.9 295 17.5 101650 70
2005-05-26 06:52:29 51°18.198 2°51.194 5.4 301 17.5 101650 70
2005-05-26 06:52:34 51°18.211 2°51.169 5.6 302 17.5 101660 70
2005-05-26 06:52:38 51°18.221 2°51.149 5.3 306 17.5 101660 70
2005-05-26 06:52:44 51°18.236 2°51.119 5.9 299 17.5 101660 70
2005-05-26 06:52:49 51°18.249 2°51.093 6.5 297 17.5 101660 70
2005-05-26 06:52:54 51°18.26 2°51.068 6.5 300 17.4 101650 71
2005-05-26 06:52:59 51°18.273 2°51.039 6.6 300 17.4 101650 71
2005-05-26 06:53:04 51°18.283 2°51.015 6.4 297 17.4 101650 71
2005-05-26 06:53:08 51°18.294 2°50.991 6.3 301 17.4 101650 71
2005-05-26 06:53:14 51°18.306 2°50.962 6.7 305 17.4 101650 71
2005-05-26 06:53:19 51°18.318 2°50.932 7.1 298 17.4 101650 71
2005-05-26 06:53:24 51°18.329 2°50.905 6.7 301 17.4 101650 71
2005-05-26 06:53:29 51°18.339 2°50.88 7.4 303 17.4 101650 71
2005-05-26 06:53:34 51°18.349 2°50.853 6.4 307 17.3 101650 71
2005-05-26 06:53:39 51°18.358 2°50.825 6.7 300 17.3 101650 71
2005-05-26 06:53:44 51°18.37 2°50.794 6.8 300 17.3 101650 71
2005-05-26 06:53:49 51°18.378 2°50.768 7.8 299 17.3 101650 71
2005-05-26 06:53:54 51°18.388 2°50.74 6.9 303 17.3 101650 71
2005-05-26 06:53:58 51°18.395 2°50.717 7.2 303 17.3 101650 71
2005-05-26 06:54:04 51°18.407 2°50.684 7.1 305 17.3 101650 71
2005-05-26 06:54:08 51°18.416 2°50.658 7 306 17.3 101650 71
2005-05-26 06:54:14 51°18.426 2°50.627 7.5 308 17.2 101650 71
2005-05-26 06:54:19 51°18.436 2°50.599 6.9 308 17.2 101650 71
2005-05-26 06:54:23 51°18.444 2°50.573 6.8 309 17.2 101650 71
2005-05-26 06:54:29 51°18.455 2°50.542 7.7 310 17.2 101650 71
2005-05-26 06:54:34 51°18.464 2°50.514 6.9 306 17.2 101650 72
2005-05-26 06:54:39 51°18.474 2°50.486 6.6 308 17.2 101650 72
2005-05-26 06:54:44 51°18.483 2°50.457 7 304 17.2 101650 72
2005-05-26 06:54:48 51°18.491 2°50.432 7.7 306 17.2 101650 72
2005-05-26 06:54:54 51°18.501 2°50.4 7.4 310 17.2 101650 72
2005-05-26 06:54:59 51°18.511 2°50.372 7.2 308 17.2 101650 72
2005-05-26 06:55:04 51°18.52 2°50.343 7.5 308 17.2 101650 72
2005-05-26 06:55:09 51°18.529 2°50.314 7.6 311 17.2 101650 72
2005-05-26 06:55:14 51°18.538 2°50.286 6.9 305 17.2 101650 72
2005-05-26 06:55:19 51°18.548 2°50.257 7.2 314 17.2 101650 72
2005-05-26 06:55:24 51°18.557 2°50.229 7.3 308 17.1 101650 72
2005-05-26 06:55:28 51°18.565 2°50.203 7.5 308 17.1 101650 72
2005-05-26 06:55:34 51°18.575 2°50.172 7.8 307 17.1 101650 72
2005-05-26 06:55:39 51°18.584 2°50.143 7.6 305 17.1 101650 72
2005-05-26 06:55:44 51°18.594 2°50.114 6.6 311 17.1 101650 72
2005-05-26 06:55:48 51°18.602 2°50.089 7.1 308 17.1 101650 72
2005-05-26 06:55:54 51°18.612 2°50.057 6.8 313 17 101650 72
2005-05-26 06:55:58 51°18.62 2°50.034 6.8 311 17 101650 72
2005-05-26 06:56:04 51°18.631 2°50 7 308 17 101650 73
2005-05-26 06:56:08 51°18.639 2°49.974 7.6 307 17 101650 73
2005-05-26 06:56:14 51°18.648 2°49.942 7.6 307 17 101650 73
2005-05-26 06:56:19 51°18.656 2°49.913 7.5 308 17 101650 73
2005-05-26 06:56:24 51°18.664 2°49.884 7.5 309 17 101650 73
2005-05-26 06:56:29 51°18.672 2°49.854 7.1 307 17 101650 73
2005-05-26 06:56:34 51°18.68 2°49.824 7.2 308 17 101650 73
2005-05-26 06:56:39 51°18.687 2°49.794 7.7 306 17 101650 73
2005-05-26 06:56:44 51°18.695 2°49.765 7.8 311 16.9 101650 73
2005-05-26 06:56:49 51°18.703 2°49.735 7.7 309 16.9 101650 73
2005-05-26 06:56:54 51°18.711 2°49.707 7.4 309 16.9 101650 73
2005-05-26 06:56:58 51°18.718 2°49.68 7.6 308 16.9 101650 73
2005-05-26 06:57:04 51°18.727 2°49.648 7.6 307 16.9 101650 73
2005-05-26 06:57:08 51°18.734 2°49.621 7.7 306 16.9 101650 73
2005-05-26 06:57:14 51°18.743 2°49.589 7.5 306 16.9 101650 73
2005-05-26 06:57:19 51°18.751 2°49.56 7.7 305 16.9 101650 73
2005-05-26 06:57:24 51°18.759 2°49.53 7.4 304 16.9 101650 73
2005-05-26 06:57:29 51°18.767 2°49.501 7.1 304 16.9 101650 73
2005-05-26 06:57:33 51°18.774 2°49.474 7.5 304 16.9 101650 73
2005-05-26 06:57:38 51°18.783 2°49.444 7.1 307 16.9 101650 73
2005-05-26 06:57:44 51°18.791 2°49.412 7.5 305 16.8 101650 73
2005-05-26 06:57:49 51°18.799 2°49.383 6.8 303 16.8 101650 73
2005-05-26 06:57:54 51°18.807 2°49.353 7 308 16.8 101650 74
2005-05-26 06:57:59 51°18.815 2°49.323 7.2 309 16.8 101650 74
2005-05-26 06:58:04 51°18.823 2°49.293 7.7 309 16.8 101650 74
2005-05-26 06:58:09 51°18.832 2°49.263 8.2 312 16.8 101650 74
2005-05-26 06:58:14 51°18.84 2°49.233 7.1 311 16.8 101650 74
2005-05-26 06:58:18 51°18.847 2°49.206 7.8 312 16.8 101650 74
2005-05-26 06:58:24 51°18.856 2°49.172 7.5 310 16.8 101650 74
2005-05-26 06:58:29 51°18.865 2°49.14 7.4 310 16.8 101650 74
2005-05-26 06:58:34 51°18.873 2°49.113 7.6 311 16.8 101650 74
2005-05-26 06:58:39 51°18.881 2°49.083 7.7 309 16.8 101650 74
2005-05-26 06:58:44 51°18.889 2°49.052 7.4 308 16.8 101650 74
2005-05-26 06:58:49 51°18.897 2°49.022 7.7 312 16.8 101650 74
2005-05-26 06:58:54 51°18.906 2°48.992 7.3 310 16.7 101650 74
2005-05-26 06:58:59 51°18.914 2°48.962 8.2 310 16.7 101650 74
2005-05-26 06:59:04 51°18.922 2°48.932 7.4 307 16.7 101650 74
2005-05-26 06:59:09 51°18.931 2°48.902 7.2 310 16.7 101650 74
2005-05-26 06:59:14 51°18.939 2°48.872 7.6 310 16.7 101650 74
2005-05-26 06:59:19 51°18.947 2°48.841 8 310 16.7 101650 74
2005-05-26 06:59:24 51°18.956 2°48.811 8.4 308 16.7 101650 74
2005-05-26 06:59:29 51°18.964 2°48.78 7.6 311 16.7 101650 74
2005-05-26 06:59:34 51°18.972 2°48.75 8 311 16.7 101650 74
2005-05-26 06:59:39 51°18.981 2°48.72 7.8 309 16.7 101650 74
2005-05-26 06:59:44 51°18.989 2°48.689 7.3 310 16.7 101650 75
2005-05-26 06:59:49 51°18.997 2°48.659 7.5 309 16.7 101650 75
2005-05-26 06:59:54 51°19.005 2°48.629 7.3 309 16.7 101650 75
2005-05-26 06:59:59 51°19.013 2°48.596 7.8 306 16.7 101650 75
2005-05-26 07:00:04 51°19.02 2°48.568 8.1 309 16.7 101650 75
2005-05-26 07:00:09 51°19.029 2°48.538 7.6 308 16.7 101650 75
2005-05-26 07:00:14 51°19.037 2°48.509 7.5 307 16.6 101650 75
2005-05-26 07:00:19 51°19.045 2°48.479 8.1 304 16.6 101650 75
2005-05-26 07:00:24 51°19.053 2°48.446 8.3 309 16.6 101640 75
2005-05-26 07:00:28 51°19.06 2°48.422 7.7 307 16.6 101640 75
2005-05-26 07:00:34 51°19.068 2°48.389 8.3 307 16.6 101650 75
2005-05-26 07:00:39 51°19.076 2°48.359 8.5 309 16.6 101650 75
2005-05-26 07:00:43 51°19.083 2°48.332 7.4 303 16.6 101640 75
2005-05-26 07:00:48 51°19.091 2°48.302 7.5 304 16.6 101640 75
2005-05-26 07:00:54 51°19.1 2°48.27 7.6 305 16.6 101640 75
2005-05-26 07:00:58 51°19.107 2°48.243 8.3 303 16.6 101640 75
2005-05-26 07:01:04 51°19.116 2°48.21 8.3 305 16.6 101650 75
2005-05-26 07:01:09 51°19.124 2°48.178 7.8 307 16.6 101650 75
2005-05-26 07:01:14 51°19.131 2°48.151 8.1 304 16.6 101640 75
2005-05-26 07:01:19 51°19.14 2°48.118 7.8 308 16.6 101640 75
2005-05-26 07:01:24 51°19.147 2°48.091 8 306 16.5 101650 75
2005-05-26 07:01:29 51°19.154 2°48.061 7.6 305 16.5 101650 75
2005-05-26 07:01:34 51°19.161 2°48.03 8.3 305 16.6 101640 75
2005-05-26 07:01:39 51°19.168 2°47.997 7.8 303 16.6 101640 75
2005-05-26 07:01:44 51°19.174 2°47.97 8.3 308 16.5 101640 75
2005-05-26 07:01:49 51°19.181 2°47.94 8.3 305 16.5 101640 75
2005-05-26 07:01:54 51°19.188 2°47.909 8.1 302 16.5 101640 75
2005-05-26 07:01:59 51°19.194 2°47.879 8.7 303 16.5 101640 75
2005-05-26 07:02:04 51°19.201 2°47.848 8.4 305 16.5 101640 75
2005-05-26 07:02:08 51°19.207 2°47.821 8.7 307 16.5 101640 75
2005-05-26 07:02:14 51°19.214 2°47.787 7.8 307 16.5 101640 76
2005-05-26 07:02:18 51°19.22 2°47.759 8.5 307 16.5 101640 76
2005-05-26 07:02:24 51°19.228 2°47.723 7.9 305 16.5 101640 76
2005-05-26 07:02:28 51°19.234 2°47.698 7.8 308 16.5 101640 76
2005-05-26 07:02:34 51°19.241 2°47.664 8.1 306 16.5 101630 76
2005-05-26 07:02:39 51°19.248 2°47.631 8.2 306 16.5 101630 76
2005-05-26 07:02:44 51°19.254 2°47.603 8.2 306 16.5 101630 76
2005-05-26 07:02:49 51°19.261 2°47.572 8.3 305 16.5 101630 76
2005-05-26 07:02:54 51°19.268 2°47.541 8.9 306 16.5 101640 76
2005-05-26 07:02:58 51°19.274 2°47.513 8.6 306 16.5 101640 76
2005-05-26 07:03:04 51°19.281 2°47.479 8 306 16.5 101640 76
2005-05-26 07:03:09 51°19.287 2°47.448 8.4 309 16.5 101640 76
2005-05-26 07:03:14 51°19.294 2°47.418 8.5 308 16.4 101630 76
2005-05-26 07:03:19 51°19.301 2°47.387 8.5 306 16.4 101630 76
2005-05-26 07:03:23 51°19.307 2°47.36 8.1 309 16.4 101640 76
2005-05-26 07:03:29 51°19.314 2°47.326 9.2 302 16.4 101640 76
2005-05-26 07:03:34 51°19.321 2°47.295 8.5 306 16.4 101630 76
2005-05-26 07:03:38 51°19.327 2°47.267 8 307 16.4 101630 76
2005-05-26 07:03:44 51°19.335 2°47.234 7.5 303 16.4 101630 76
2005-05-26 07:03:49 51°19.342 2°47.203 8.8 305 16.4 101630 76
2005-05-26 07:03:54 51°19.348 2°47.172 8.5 304 16.4 101630 76
2005-05-26 07:03:59 51°19.355 2°47.141 8.8 301 16.4 101630 76
2005-05-26 07:04:04 51°19.362 2°47.111 8.8 306 16.4 101630 76
2005-05-26 07:04:09 51°19.369 2°47.08 7.7 305 16.4 101630 76
2005-05-26 07:04:14 51°19.376 2°47.049 8.5 303 16.4 101630 76
2005-05-26 07:04:19 51°19.384 2°47.015 8.1 304 16.4 101630 76
2005-05-26 07:04:24 51°19.39 2°46.988 8 304 16.4 101640 76
2005-05-26 07:04:29 51°19.397 2°46.957 7.7 303 16.4 101640 76
2005-05-26 07:04:34 51°19.404 2°46.926 8.5 307 16.4 101630 76
2005-05-26 07:04:39 51°19.412 2°46.892 8.2 303 16.4 101630 76
2005-05-26 07:04:44 51°19.418 2°46.864 8.9 305 16.4 101630 76
2005-05-26 07:04:49 51°19.426 2°46.83 7.8 307 16.4 101630 76
2005-05-26 07:04:54 51°19.432 2°46.803 7.9 305 16.4 101630 76
2005-05-26 07:04:59 51°19.439 2°46.771 8.5 302 16.4 101630 76
2005-05-26 07:05:04 51°19.446 2°46.741 8 302 16.4 101630 76
2005-05-26 07:05:09 51°19.453 2°46.71 8.7 307 16.4 101630 76
2005-05-26 07:05:14 51°19.459 2°46.678 8.2 306 16.4 101630 76
2005-05-26 07:05:18 51°19.463 2°46.653 8.6 309 16.4 101630 76
2005-05-26 07:05:24 51°19.47 2°46.614 9 308 16.3 101630 76
2005-05-26 07:05:28 51°19.475 2°46.586 9 314 16.3 101630 76
2005-05-26 07:05:34 51°19.481 2°46.551 8.4 309 16.3 101640 76
2005-05-26 07:05:39 51°19.486 2°46.519 9.2 308 16.3 101640 76
2005-05-26 07:05:43 51°19.491 2°46.49 8.8 234 16.3 101630 76
2005-05-26 07:05:49 51°19.496 2°46.455 8.6 309 16.3 101630 76
2005-05-26 07:05:54 51°19.501 2°46.423 9.1 309 16.3 101630 76
2005-05-26 07:05:59 51°19.506 2°46.39 9 311 16.3 101630 76
2005-05-26 07:06:04 51°19.511 2°46.361 8.5 310 16.3 101630 76
2005-05-26 07:06:09 51°19.516 2°46.33 8.2 306 16.3 101630 76
2005-05-26 07:06:14 51°19.521 2°46.298 8.5 307 16.3 101630 76
2005-05-26 07:06:19 51°19.527 2°46.263 9 308 16.3 101630 76
2005-05-26 07:06:24 51°19.531 2°46.234 8.4 311 16.3 101630 76
2005-05-26 07:06:29 51°19.537 2°46.199 9.1 310 16.3 101630 76
2005-05-26 07:06:34 51°19.542 2°46.171 8.4 309 16.3 101630 76
2005-05-26 07:06:39 51°19.546 2°46.139 8.9 310 16.3 101630 76
2005-05-26 07:06:44 51°19.551 2°46.108 8.7 232 16.3 101630 76
2005-05-26 07:06:49 51°19.557 2°46.076 9.1 310 16.3 101630 76
2005-05-26 07:06:54 51°19.562 2°46.044 9.3 309 16.3 101630 76
2005-05-26 07:06:59 51°19.567 2°46.01 8.5 307 16.3 101630 76
2005-05-26 07:07:04 51°19.572 2°45.981 9.1 310 16.3 101630 77
2005-05-26 07:07:08 51°19.577 2°45.953 9.2 308 16.3 101630 77
2005-05-26 07:07:14 51°19.582 2°45.918 8.3 305 16.3 101620 77
2005-05-26 07:07:19 51°19.587 2°45.887 8.7 306 16.3 101620 77
2005-05-26 07:07:24 51°19.593 2°45.855 9 304 16.3 101630 77
2005-05-26 07:07:29 51°19.597 2°45.824 8.9 306 16.3 101630 77
2005-05-26 07:07:34 51°19.602 2°45.792 9.1 307 16.3 101620 77
2005-05-26 07:07:39 51°19.608 2°45.758 8.7 306 16.3 101620 77
2005-05-26 07:07:44 51°19.613 2°45.729 8.7 306 16.2 101630 77
2005-05-26 07:07:49 51°19.618 2°45.695 8.8 305 16.2 101630 77
2005-05-26 07:07:54 51°19.623 2°45.666 8.4 306 16.3 101620 77
2005-05-26 07:07:59 51°19.629 2°45.631 8.8 306 16.3 101620 77
2005-05-26 07:08:04 51°19.634 2°45.603 9.4 305 16.3 101630 77
2005-05-26 07:08:08 51°19.639 2°45.575 8.1 308 16.3 101630 77
2005-05-26 07:08:14 51°19.644 2°45.54 9 307 16.2 101620 77
2005-05-26 07:08:19 51°19.65 2°45.508 8.6 305 16.2 101620 77
2005-05-26 07:08:24 51°19.655 2°45.477 8.1 304 16.2 101630 77
2005-05-26 07:08:28 51°19.66 2°45.448 8.3 308 16.2 101630 77
2005-05-26 07:08:34 51°19.666 2°45.413 8.5 307 16.2 101630 77
2005-05-26 07:08:39 51°19.672 2°45.378 8.9 308 16.2 101630 77
2005-05-26 07:08:44 51°19.676 2°45.348 8.8 308 16.2 101630 77
2005-05-26 07:08:49 51°19.681 2°45.316 9 310 16.2 101630 77
2005-05-26 07:08:54 51°19.686 2°45.283 8.9 309 16.2 101620 77
2005-05-26 07:08:58 51°19.691 2°45.254 8.9 311 16.2 101620 77
2005-05-26 07:09:04 51°19.696 2°45.218 9.2 310 16.2 101620 77
2005-05-26 07:09:08 51°19.7 2°45.189 8.7 309 16.2 101620 77
2005-05-26 07:09:14 51°19.705 2°45.153 9 309 16.2 101630 77
2005-05-26 07:09:19 51°19.71 2°45.117 8.8 310 16.2 101630 77
2005-05-26 07:09:24 51°19.715 2°45.085 9.3 306 16.2 101630 77
2005-05-26 07:09:29 51°19.719 2°45.056 8.8 309 16.2 101630 77
2005-05-26 07:09:34 51°19.724 2°45.024 8.2 310 16.2 101620 77
2005-05-26 07:09:39 51°19.729 2°44.991 9 309 16.2 101620 77
2005-05-26 07:09:44 51°19.734 2°44.959 8.7 308 16.2 101620 77
2005-05-26 07:09:49 51°19.738 2°44.927 8.5 309 16.2 101620 77
2005-05-26 07:09:54 51°19.743 2°44.894 8.6 310 16.2 101630 77
2005-05-26 07:09:58 51°19.747 2°44.865 9.1 310 16.2 101630 77
2005-05-26 07:10:04 51°19.752 2°44.83 8.7 309 16.2 101620 77
2005-05-26 07:10:09 51°19.758 2°44.795 8.9 308 16.2 101620 77
2005-05-26 07:10:14 51°19.762 2°44.766 8.5 304 16.1 101620 77
2005-05-26 07:10:19 51°19.767 2°44.733 9 307 16.1 101620 77
2005-05-26 07:10:24 51°19.772 2°44.701 9.2 306 16.1 101620 77
2005-05-26 07:10:29 51°19.776 2°44.669 9.1 310 16.1 101620 77
2005-05-26 07:10:34 51°19.781 2°44.636 8.2 307 16.1 101620 77
2005-05-26 07:10:39 51°19.786 2°44.604 8.4 304 16.1 101620 77
2005-05-26 07:10:44 51°19.791 2°44.572 8.5 307 16.1 101620 77
2005-05-26 07:10:49 51°19.795 2°44.539 9 306 16.1 101620 77
2005-05-26 07:10:54 51°19.8 2°44.507 8.2 306 16.1 101620 77
2005-05-26 07:10:59 51°19.805 2°44.475 8.3 305 16.1 101620 77
2005-05-26 07:11:04 51°19.81 2°44.443 7.9 307 16.1 101620 77
2005-05-26 07:11:08 51°19.814 2°44.414 8.5 307 16.1 101620 77
2005-05-26 07:11:14 51°19.819 2°44.378 8.6 306 16.1 101620 77
2005-05-26 07:11:19 51°19.824 2°44.343 8.9 309 16.1 101620 77
2005-05-26 07:11:24 51°19.829 2°44.311 8.4 307 16.1 101630 77
2005-05-26 07:11:29 51°19.833 2°44.282 8.1 305 16.1 101630 77
2005-05-26 07:11:33 51°19.837 2°44.256 8.6 305 16.1 101620 78
2005-05-26 07:11:38 51°19.842 2°44.221 8 303 16.1 101620 78
2005-05-26 07:11:44 51°19.848 2°44.183 9 302 16.1 101620 78
2005-05-26 07:11:49 51°19.852 2°44.154 8.5 307 16.1 101620 78
2005-05-26 07:11:53 51°19.856 2°44.128 8.6 306 16.1 101620 78
2005-05-26 07:11:58 51°19.861 2°44.093 8.2 308 16.1 101620 78
2005-05-26 07:12:04 51°19.867 2°44.055 8.1 306 16 101620 78
2005-05-26 07:12:09 51°19.872 2°44.026 8.4 304 16 101620 78
2005-05-26 07:12:14 51°19.876 2°43.994 8 306 16 101620 78
2005-05-26 07:12:19 51°19.881 2°43.959 8.4 307 16 101620 78
2005-05-26 07:12:24 51°19.886 2°43.93 8 305 16 101620 78
2005-05-26 07:12:29 51°19.891 2°43.895 8.6 306 16 101620 78
2005-05-26 07:12:34 51°19.896 2°43.866 8 307 16 101620 78
2005-05-26 07:12:39 51°19.902 2°43.83 8.4 307 16 101620 78
2005-05-26 07:12:44 51°19.906 2°43.801 8.5 308 16 101620 78
2005-05-26 07:12:48 51°19.911 2°43.772 7.5 306 16 101620 78
2005-05-26 07:12:54 51°19.916 2°43.737 8.5 306 16 101620 78
2005-05-26 07:12:58 51°19.92 2°43.708 8.1 306 16 101620 78
2005-05-26 07:13:04 51°19.926 2°43.671 7.9 305 16 101620 78
2005-05-26 07:13:09 51°19.931 2°43.642 7.8 306 16 101620 78
2005-05-26 07:13:14 51°19.936 2°43.611 8 306 16 101620 78
2005-05-26 07:13:19 51°19.941 2°43.576 7.9 309 16 101620 78
2005-05-26 07:13:24 51°19.945 2°43.547 7.8 306 16 101620 78
2005-05-26 07:13:29 51°19.95 2°43.516 8.4 307 16 101620 78
2005-05-26 07:13:34 51°19.955 2°43.484 8.1 309 16 101620 78
2005-05-26 07:13:39 51°19.961 2°43.449 7.9 306 16 101620 78
2005-05-26 07:13:44 51°19.966 2°43.42 7.8 308 15.9 101620 78
2005-05-26 07:13:48 51°19.97 2°43.392 7.9 306 15.9 101620 78
2005-05-26 07:13:54 51°19.976 2°43.357 7.5 305 15.9 101620 78
2005-05-26 07:13:58 51°19.981 2°43.328 7.4 307 15.9 101620 78
2005-05-26 07:14:04 51°19.986 2°43.293 7.7 306 15.9 101620 78
2005-05-26 07:14:09 51°19.992 2°43.262 7.6 307 15.9 101620 78
2005-05-26 07:14:14 51°19.997 2°43.23 8.3 305 15.9 101620 78
2005-05-26 07:14:19 51°20.002 2°43.199 7.9 309 15.9 101620 78
2005-05-26 07:14:24 51°20.008 2°43.167 7.6 308 15.9 101620 78
2005-05-26 07:14:29 51°20.013 2°43.132 8.1 309 15.9 101620 78
2005-05-26 07:14:34 51°20.018 2°43.104 7.6 312 15.9 101620 78
2005-05-26 07:14:39 51°20.023 2°43.072 7.6 312 15.9 101620 78
2005-05-26 07:14:44 51°20.028 2°43.04 7.8 310 15.9 101620 79
2005-05-26 07:14:49 51°20.033 2°43.009 7.8 311 15.9 101620 79
2005-05-26 07:14:54 51°20.039 2°42.977 7.7 309 15.9 101630 79
2005-05-26 07:14:59 51°20.045 2°42.943 7.7 310 15.9 101630 79
2005-05-26 07:15:04 51°20.05 2°42.914 7.8 312 15.8 101620 79
2005-05-26 07:15:09 51°20.055 2°42.883 7.9 310 15.8 101620 79
2005-05-26 07:15:14 51°20.06 2°42.852 7.6 311 15.8 101620 79
2005-05-26 07:15:19 51°20.065 2°42.817 7.9 311 15.8 101620 79
2005-05-26 07:15:24 51°20.07 2°42.789 7.4 313 15.8 101630 79
2005-05-26 07:15:29 51°20.075 2°42.754 7.1 311 15.8 101630 79
2005-05-26 07:15:34 51°20.08 2°42.726 7.1 312 15.8 101630 79
2005-05-26 07:15:39 51°20.084 2°42.691 8.2 312 15.8 101630 79
2005-05-26 07:15:44 51°20.088 2°42.659 8.4 310 15.8 101630 79
2005-05-26 07:15:48 51°20.092 2°42.633 7.4 310 15.8 101630 79
2005-05-26 07:15:54 51°20.096 2°42.598 7 309 15.8 101620 79
2005-05-26 07:15:59 51°20.101 2°42.564 7.3 310 15.8 101620 79
2005-05-26 07:16:04 51°20.105 2°42.535 7.2 312 15.8 101630 79
2005-05-26 07:16:09 51°20.11 2°42.503 7.5 312 15.8 101630 79
2005-05-26 07:16:14 51°20.114 2°42.472 7.7 308 15.8 101620 79
2005-05-26 07:16:19 51°20.119 2°42.44 7.9 312 15.8 101620 79
2005-05-26 07:16:24 51°20.124 2°42.408 7.2 308 15.7 101620 79
2005-05-26 07:16:29 51°20.128 2°42.377 8 311 15.7 101620 79
2005-05-26 07:16:34 51°20.133 2°42.345 7.2 312 15.7 101620 79
2005-05-26 07:16:39 51°20.137 2°42.313 7.5 311 15.7 101620 79
2005-05-26 07:16:44 51°20.143 2°42.279 7.6 312 15.7 101620 79
2005-05-26 07:16:48 51°20.146 2°42.253 7.7 310 15.7 101620 79
2005-05-26 07:16:54 51°20.152 2°42.218 7.3 311 15.7 101620 80
2005-05-26 07:16:59 51°20.157 2°42.186 7.2 312 15.7 101620 80
2005-05-26 07:17:04 51°20.162 2°42.154 8 312 15.7 101620 80
2005-05-26 07:17:09 51°20.166 2°42.123 7.7 310 15.7 101620 80
2005-05-26 07:17:14 51°20.171 2°42.091 7.4 311 15.7 101620 80
2005-05-26 07:17:19 51°20.176 2°42.056 7.8 312 15.7 101620 80
2005-05-26 07:17:24 51°20.18 2°42.027 7.3 313 15.7 101620 80
2005-05-26 07:17:29 51°20.185 2°41.995 7.8 311 15.7 101620 80
2005-05-26 07:17:34 51°20.19 2°41.963 7.7 313 15.7 101620 80
2005-05-26 07:17:39 51°20.195 2°41.928 8.3 311 15.7 101620 80
2005-05-26 07:17:44 51°20.199 2°41.899 8.1 311 15.6 101620 80
2005-05-26 07:17:48 51°20.204 2°41.87 8 313 15.6 101620 80
2005-05-26 07:17:54 51°20.209 2°41.835 7.5 312 15.7 101620 80
2005-05-26 07:17:59 51°20.214 2°41.802 7.7 312 15.7 101620 80
2005-05-26 07:18:04 51°20.22 2°41.767 8 311 15.6 101620 80
2005-05-26 07:18:08 51°20.224 2°41.742 7.9 309 15.6 101620 80
2005-05-26 07:18:14 51°20.229 2°41.706 7.4 313 15.6 101620 80
2005-05-26 07:18:19 51°20.234 2°41.671 7.7 309 15.6 101620 80
2005-05-26 07:18:24 51°20.239 2°41.642 7.6 313 15.6 101620 80
2005-05-26 07:18:28 51°20.243 2°41.613 7.4 228 15.6 101620 80
2005-05-26 07:18:34 51°20.249 2°41.577 7.4 312 15.6 101620 80
2005-05-26 07:18:38 51°20.253 2°41.548 7.9 314 15.6 101620 80
2005-05-26 07:18:44 51°20.259 2°41.512 7.8 314 15.6 101620 80
2005-05-26 07:18:49 51°20.263 2°41.48 7.4 313 15.6 101620 80
2005-05-26 07:18:54 51°20.268 2°41.448 7.8 312 15.6 101620 80
2005-05-26 07:18:59 51°20.274 2°41.415 7.7 315 15.6 101620 80
2005-05-26 07:19:04 51°20.278 2°41.383 8.2 309 15.6 101620 80
2005-05-26 07:19:09 51°20.284 2°41.348 7.7 312 15.6 101620 80
2005-05-26 07:19:14 51°20.288 2°41.319 8 313 15.6 101620 80
2005-05-26 07:19:19 51°20.294 2°41.283 7.8 314 15.6 101620 80
2005-05-26 07:19:24 51°20.298 2°41.254 7.9 308 15.6 101620 80
2005-05-26 07:19:29 51°20.303 2°41.222 7.6 310 15.6 101620 80
2005-05-26 07:19:34 51°20.308 2°41.19 7.1 312 15.6 101620 80
2005-05-26 07:19:39 51°20.313 2°41.154 7.7 310 15.6 101620 80
2005-05-26 07:19:44 51°20.318 2°41.125 7.6 309 15.6 101620 80
2005-05-26 07:19:48 51°20.322 2°41.096 7.9 310 15.6 101620 80
2005-05-26 07:19:54 51°20.328 2°41.061 7.8 308 15.6 101620 80
2005-05-26 07:19:58 51°20.332 2°41.032 7.9 313 15.6 101620 80
2005-05-26 07:20:04 51°20.338 2°40.994 7.9 311 15.6 101620 80
2005-05-26 07:20:09 51°20.343 2°40.964 8.5 307 15.6 101620 80
2005-05-26 07:20:14 51°20.348 2°40.932 7.9 312 15.6 101620 80
2005-05-26 07:20:19 51°20.353 2°40.897 8.5 309 15.6 101620 80
2005-05-26 07:20:24 51°20.357 2°40.868 8.5 308 15.6 101620 81
2005-05-26 07:20:29 51°20.362 2°40.835 8.5 306 15.6 101620 81
2005-05-26 07:20:34 51°20.367 2°40.803 7.7 310 15.6 101630 81
2005-05-26 07:20:39 51°20.372 2°40.768 8.7 304 15.6 101630 81
2005-05-26 07:20:44 51°20.377 2°40.735 8.4 311 15.6 101620 81
2005-05-26 07:20:48 51°20.381 2°40.709 8 311 15.6 101620 81
2005-05-26 07:20:54 51°20.385 2°40.674 7.9 312 15.6 101620 81
2005-05-26 07:20:59 51°20.39 2°40.641 8 311 15.6 101620 81
2005-05-26 07:21:04 51°20.395 2°40.609 8.2 310 15.6 101620 81
2005-05-26 07:21:09 51°20.401 2°40.574 7.6 308 15.6 101620 81
2005-05-26 07:21:14 51°20.405 2°40.545 8.2 306 15.6 101620 81
2005-05-26 07:21:19 51°20.409 2°40.513 8.6 308 15.6 101620 81
2005-05-26 07:21:24 51°20.414 2°40.481 8.8 306 15.6 101620 81
2005-05-26 07:21:29 51°20.42 2°40.446 8.3 307 15.6 101620 81
2005-05-26 07:21:34 51°20.424 2°40.416 8.1 306 15.6 101630 81
2005-05-26 07:21:39 51°20.429 2°40.381 8.5 309 15.6 101630 81
2005-05-26 07:21:44 51°20.434 2°40.352 7.8 306 15.6 101620 81
2005-05-26 07:21:49 51°20.439 2°40.317 8 311 15.6 101620 81
2005-05-26 07:21:54 51°20.443 2°40.288 8.3 307 15.6 101620 81
2005-05-26 07:21:59 51°20.449 2°40.253 8.4 305 15.6 101620 81
2005-05-26 07:22:04 51°20.453 2°40.224 7.7 304 15.6 101630 81
2005-05-26 07:22:08 51°20.457 2°40.195 8.7 302 15.6 101630 81
2005-05-26 07:22:14 51°20.463 2°40.159 7.9 309 15.7 101620 81
2005-05-26 07:22:19 51°20.468 2°40.124 8.3 307 15.7 101620 81
2005-05-26 07:22:24 51°20.472 2°40.095 8.5 307 15.7 101620 81
2005-05-26 07:22:29 51°20.477 2°40.062 8.6 308 15.7 101620 81
2005-05-26 07:22:34 51°20.479 2°40.029 8.8 308 15.7 101620 81
2005-05-26 07:22:39 51°20.483 2°39.994 9.5 310 15.7 101620 81
2005-05-26 07:22:44 51°20.485 2°39.964 8.4 311 15.7 101620 81
2005-05-26 07:22:49 51°20.488 2°39.931 9.4 310 15.7 101620 81
2005-05-26 07:22:54 51°20.49 2°39.898 8.7 309 15.7 101620 81
2005-05-26 07:22:59 51°20.492 2°39.865 8.9 310 15.7 101620 81
2005-05-26 07:23:04 51°20.494 2°39.829 9.5 309 15.7 101620 81
2005-05-26 07:23:09 51°20.496 2°39.795 9.4 312 15.7 101620 81
2005-05-26 07:23:14 51°20.498 2°39.766 9 314 15.7 101620 81
2005-05-26 07:23:19 51°20.5 2°39.732 9.5 311 15.7 101620 81
2005-05-26 07:23:24 51°20.502 2°39.7 8.7 314 15.7 101620 80
2005-05-26 07:23:29 51°20.504 2°39.667 9.2 313 15.7 101620 80
2005-05-26 07:23:34 51°20.505 2°39.634 9.6 310 15.7 101620 80
2005-05-26 07:23:38 51°20.507 2°39.603 8.6 310 15.7 101620 80
2005-05-26 07:23:44 51°20.51 2°39.567 9.1 310 15.7 101620 80
2005-05-26 07:23:49 51°20.512 2°39.531 8 315 15.7 101620 80
2005-05-26 07:23:54 51°20.514 2°39.501 9.3 313 15.7 101620 80
2005-05-26 07:23:59 51°20.517 2°39.465 9.5 312 15.7 101620 80
2005-05-26 07:24:04 51°20.518 2°39.435 10 310 15.7 101620 81
2005-05-26 07:24:08 51°20.52 2°39.405 9.3 312 15.7 101620 81
2005-05-26 07:24:14 51°20.522 2°39.369 8.8 312 15.7 101620 81
2005-05-26 07:24:19 51°20.525 2°39.332 8.8 311 15.7 101620 81
2005-05-26 07:24:24 51°20.527 2°39.299 8.6 311 15.7 101610 81
2005-05-26 07:24:29 51°20.529 2°39.269 9.7 312 15.7 101610 81
2005-05-26 07:24:34 51°20.531 2°39.236 8.9 315 15.7 101610 81
2005-05-26 07:24:38 51°20.533 2°39.206 9.2 310 15.7 101610 81
2005-05-26 07:24:44 51°20.536 2°39.169 9.3 312 15.7 101620 81
2005-05-26 07:24:49 51°20.537 2°39.137 8.8 313 15.7 101620 81
2005-05-26 07:24:54 51°20.539 2°39.103 9.1 314 15.7 101620 81
2005-05-26 07:24:59 51°20.542 2°39.067 9.8 308 15.7 101620 81
2005-05-26 07:25:04 51°20.544 2°39.037 9.3 309 15.7 101620 81
2005-05-26 07:25:09 51°20.546 2°39.001 9.2 313 15.7 101620 81
2005-05-26 07:25:14 51°20.548 2°38.971 8.8 312 15.7 101610 81
2005-05-26 07:25:19 51°20.551 2°38.935 8.7 310 15.7 101610 81
2005-05-26 07:25:24 51°20.552 2°38.905 9.8 310 15.7 101620 81
2005-05-26 07:25:28 51°20.553 2°38.875 9.2 312 15.7 101620 81
2005-05-26 07:25:34 51°20.556 2°38.839 9.2 311 15.7 101620 81
2005-05-26 07:25:39 51°20.557 2°38.806 9.1 310 15.7 101620 81
2005-05-26 07:25:44 51°20.559 2°38.773 9 311 15.7 101620 81
2005-05-26 07:25:49 51°20.562 2°38.737 9.3 311 15.7 101620 81
2005-05-26 07:25:54 51°20.564 2°38.707 9.1 311 15.7 101610 81
2005-05-26 07:25:59 51°20.566 2°38.671 8.7 313 15.7 101610 81
2005-05-26 07:26:04 51°20.568 2°38.641 8.7 314 15.7 101620 81
2005-05-26 07:26:08 51°20.569 2°38.612 8.8 308 15.7 101620 81
2005-05-26 07:26:14 51°20.572 2°38.576 9 309 15.7 101620 81
2005-05-26 07:26:19 51°20.574 2°38.543 9.6 314 15.7 101620 81
2005-05-26 07:26:24 51°20.575 2°38.51 8.7 311 15.8 101620 81
2005-05-26 07:26:28 51°20.577 2°38.48 8.8 310 15.8 101620 81
2005-05-26 07:26:34 51°20.579 2°38.444 8.6 312 15.7 101620 81
2005-05-26 07:26:39 51°20.582 2°38.408 8.5 307 15.7 101620 81
2005-05-26 07:26:44 51°20.583 2°38.378 8.5 314 15.7 101620 81
2005-05-26 07:26:48 51°20.585 2°38.349 8.6 312 15.7 101620 81
2005-05-26 07:26:54 51°20.587 2°38.312 9 312 15.7 101610 81
2005-05-26 07:26:59 51°20.589 2°38.279 9.1 314 15.7 101610 81
2005-05-26 07:27:04 51°20.591 2°38.247 8.7 315 15.7 101620 81
2005-05-26 07:27:09 51°20.593 2°38.214 8.8 312 15.7 101620 81
2005-05-26 07:27:14 51°20.594 2°38.181 9.2 315 15.7 101620 81
2005-05-26 07:27:19 51°20.596 2°38.145 9 309 15.7 101620 81
2005-05-26 07:27:24 51°20.598 2°38.115 8.5 231 15.7 101620 81
2005-05-26 07:27:29 51°20.599 2°38.082 8.9 312 15.7 101620 81
2005-05-26 07:27:34 51°20.601 2°38.05 8.7 313 15.7 101610 81
2005-05-26 07:27:39 51°20.603 2°38.013 8.9 226 15.7 101610 81
2005-05-26 07:27:44 51°20.605 2°37.984 8.5 313 15.7 101620 81
2005-05-26 07:27:49 51°20.607 2°37.951 8.8 312 15.7 101620 81
2005-05-26 07:27:54 51°20.608 2°37.919 8.3 312 15.6 101620 81
2005-05-26 07:27:59 51°20.61 2°37.883 9 313 15.6 101620 81
2005-05-26 07:28:04 51°20.611 2°37.853 8.5 312 15.6 101620 81
2005-05-26 07:28:08 51°20.613 2°37.824 8.3 311 15.6 101620 81
2005-05-26 07:28:14 51°20.615 2°37.788 8.4 310 15.6 101620 81
2005-05-26 07:28:18 51°20.617 2°37.758 8.6 313 15.6 101620 81
2005-05-26 07:28:24 51°20.619 2°37.722 8.4 313 15.6 101620 81
2005-05-26 07:28:29 51°20.621 2°37.686 8.4 312 15.6 101620 81
2005-05-26 07:28:34 51°20.622 2°37.656 8.9 312 15.6 101620 81
2005-05-26 07:28:39 51°20.625 2°37.621 8.3 311 15.6 101620 81
2005-05-26 07:28:44 51°20.627 2°37.591 8.7 315 15.6 101620 81
2005-05-26 07:28:49 51°20.629 2°37.555 9.2 236 15.6 101620 81
2005-05-26 07:28:54 51°20.631 2°37.526 8.2 312 15.6 101610 81
2005-05-26 07:28:59 51°20.633 2°37.49 8.9 311 15.6 101610 81
2005-05-26 07:29:04 51°20.635 2°37.46 8.9 315 15.6 101620 81
2005-05-26 07:29:08 51°20.637 2°37.431 8.5 230 15.6 101620 81
2005-05-26 07:29:14 51°20.639 2°37.395 8.8 312 15.6 101620 81
2005-05-26 07:29:19 51°20.641 2°37.359 9 230 15.6 101620 81
2005-05-26 07:29:24 51°20.643 2°37.326 8.4 312 15.5 101620 81
2005-05-26 07:29:29 51°20.645 2°37.296 8.8 43 15.5 101620 81
2005-05-26 07:29:34 51°20.646 2°37.263 8.4 313 15.5 101620 81
2005-05-26 07:29:39 51°20.649 2°37.23 8.9 315 15.5 101620 81
2005-05-26 07:29:44 51°20.65 2°37.197 8.9 314 15.5 101620 81
2005-05-26 07:29:49 51°20.653 2°37.161 8.8 314 15.5 101620 81
2005-05-26 07:29:54 51°20.655 2°37.131 8.7 230 15.5 101620 81
2005-05-26 07:29:59 51°20.657 2°37.094 8.5 314 15.5 101620 81
2005-05-26 07:30:04 51°20.659 2°37.064 8.3 228 15.5 101620 81
2005-05-26 07:30:09 51°20.661 2°37.028 8.8 313 15.5 101620 81
2005-05-26 07:30:14 51°20.663 2°36.998 8.4 228 15.5 101620 81
2005-05-26 07:30:19 51°20.665 2°36.962 8.1 313 15.5 101620 81
2005-05-26 07:30:24 51°20.667 2°36.932 8.9 311 15.5 101620 81
2005-05-26 07:30:29 51°20.669 2°36.895 8.7 313 15.5 101620 81
2005-05-26 07:30:34 51°20.67 2°36.865 8.6 230 15.5 101620 81
2005-05-26 07:30:39 51°20.672 2°36.832 8.5 228 15.5 101620 81
2005-05-26 07:30:44 51°20.674 2°36.799 8.4 314 15.5 101620 81
2005-05-26 07:30:49 51°20.676 2°36.762 8.9 313 15.5 101620 81
2005-05-26 07:30:54 51°20.678 2°36.732 9.1 313 15.4 101620 81
2005-05-26 07:30:59 51°20.679 2°36.699 9.1 313 15.4 101620 81
2005-05-26 07:31:04 51°20.681 2°36.665 9.2 313 15.4 101620 81
2005-05-26 07:31:09 51°20.683 2°36.632 8.8 314 15.4 101620 81
2005-05-26 07:31:14 51°20.685 2°36.599 8.2 228 15.4 101620 81
2005-05-26 07:31:19 51°20.687 2°36.565 8.6 312 15.4 101620 81
2005-05-26 07:31:24 51°20.69 2°36.529 8.1 228 15.4 101620 81
2005-05-26 07:31:29 51°20.691 2°36.499 8.3 314 15.4 101620 81
2005-05-26 07:31:34 51°20.693 2°36.465 8 314 15.4 101620 81
2005-05-26 07:31:39 51°20.696 2°36.428 9 314 15.4 101620 81
2005-05-26 07:31:44 51°20.698 2°36.398 8.5 314 15.4 101620 82
2005-05-26 07:31:49 51°20.699 2°36.365 8.3 229 15.4 101620 82
2005-05-26 07:31:54 51°20.702 2°36.331 8.8 230 15.4 101620 82
2005-05-26 07:31:59 51°20.704 2°36.295 8.3 313 15.4 101620 82
2005-05-26 07:32:04 51°20.706 2°36.264 8.6 43 15.4 101620 82
2005-05-26 07:32:08 51°20.707 2°36.234 8.2 41 15.4 101620 82
2005-05-26 07:32:13 51°20.709 2°36.201 9.1 315 15.4 101620 82
2005-05-26 07:32:19 51°20.712 2°36.16 8.2 42 15.4 101620 82
2005-05-26 07:32:24 51°20.714 2°36.13 8.7 226 15.4 101620 82
2005-05-26 07:32:29 51°20.715 2°36.096 8.2 43 15.4 101620 82
2005-05-26 07:32:34 51°20.718 2°36.063 8.9 40 15.3 101620 82
2005-05-26 07:32:39 51°20.72 2°36.026 8.5 228 15.3 101620 82
2005-05-26 07:32:44 51°20.721 2°35.995 8.5 42 15.3 101620 82
2005-05-26 07:32:49 51°20.723 2°35.961 8.4 316 15.3 101620 82
2005-05-26 07:32:54 51°20.725 2°35.928 8 228 15.3 101620 82
2005-05-26 07:32:59 51°20.727 2°35.894 8.6 228 15.3 101620 82
2005-05-26 07:33:04 51°20.73 2°35.861 8.3 227 15.3 101620 82
2005-05-26 07:33:09 51°20.731 2°35.824 8.6 42 15.3 101620 82
2005-05-26 07:33:14 51°20.733 2°35.793 8.7 315 15.3 101620 82
2005-05-26 07:33:19 51°20.735 2°35.757 8.7 42 15.3 101620 82
2005-05-26 07:33:24 51°20.736 2°35.727 8.4 43 15.3 101620 82
2005-05-26 07:33:29 51°20.738 2°35.693 8.7 43 15.3 101620 82
2005-05-26 07:33:34 51°20.74 2°35.66 8.3 227 15.3 101620 82
2005-05-26 07:33:39 51°20.742 2°35.623 8.8 316 15.3 101620 82
2005-05-26 07:33:44 51°20.744 2°35.593 8.3 42 15.3 101620 82
2005-05-26 07:33:48 51°20.745 2°35.563 9 316 15.3 101620 82
2005-05-26 07:33:54 51°20.747 2°35.526 8.3 43 15.3 101620 82
2005-05-26 07:33:59 51°20.749 2°35.489 8.9 41 15.3 101620 82
2005-05-26 07:34:04 51°20.75 2°35.459 8.7 43 15.2 101620 82
2005-05-26 07:34:09 51°20.752 2°35.426 9 42 15.2 101620 82
2005-05-26 07:34:14 51°20.754 2°35.393 8.1 319 15.2 101620 82
2005-05-26 07:34:19 51°20.756 2°35.356 8.5 318 15.2 101620 82
2005-05-26 07:34:24 51°20.758 2°35.326 9 318 15.2 101620 82
2005-05-26 07:34:29 51°20.759 2°35.293 8.4 40 15.2 101620 82
2005-05-26 07:34:34 51°20.761 2°35.259 8.5 317 15.2 101620 82
2005-05-26 07:34:39 51°20.763 2°35.225 8.6 315 15.2 101620 82
2005-05-26 07:34:44 51°20.765 2°35.193 8.6 317 15.2 101620 82
2005-05-26 07:34:48 51°20.766 2°35.162 8.7 319 15.2 101620 82
2005-05-26 07:34:54 51°20.769 2°35.125 9.3 317 15.1 101620 82
2005-05-26 07:34:58 51°20.77 2°35.095 8.8 320 15.1 101620 82
2005-05-26 07:35:04 51°20.772 2°35.058 8 316 15.1 101630 82
2005-05-26 07:35:09 51°20.774 2°35.025 8.4 316 15.1 101630 82
2005-05-26 07:35:14 51°20.776 2°34.991 8.6 317 15.1 101630 82
2005-05-26 07:35:19 51°20.777 2°34.958 9 40 15.1 101630 82
2005-05-26 07:35:24 51°20.779 2°34.925 8.8 317 15.1 101620 82
2005-05-26 07:35:29 51°20.781 2°34.891 8.8 318 15.1 101620 82
2005-05-26 07:35:34 51°20.783 2°34.858 9 317 15.1 101630 82
2005-05-26 07:35:39 51°20.785 2°34.821 8.9 318 15.1 101630 82
2005-05-26 07:35:44 51°20.786 2°34.791 8.6 319 15.1 101620 83
2005-05-26 07:35:49 51°20.788 2°34.758 8.7 318 15.1 101620 83
2005-05-26 07:35:54 51°20.79 2°34.724 8.7 317 15.1 101630 83
2005-05-26 07:35:59 51°20.792 2°34.691 8 315 15.1 101630 83
2005-05-26 07:36:04 51°20.797 2°34.659 7.4 228 15 101620 83
2005-05-26 07:36:09 51°20.803 2°34.627 7.1 314 15 101620 83
2005-05-26 07:36:14 51°20.81 2°34.598 6.6 315 15 101620 83
2005-05-26 07:36:19 51°20.819 2°34.565 6.8 312 15 101620 83
2005-05-26 07:36:24 51°20.827 2°34.539 6.6 313 15 101630 83
2005-05-26 07:36:29 51°20.837 2°34.509 6.4 314 15 101630 83
2005-05-26 07:36:34 51°20.847 2°34.481 5.9 312 15 101630 83
2005-05-26 07:36:39 51°20.856 2°34.452 5.9 311 15 101630 83
2005-05-26 07:36:44 51°20.866 2°34.425 5.8 311 15 101630 83
2005-05-26 07:36:48 51°20.875 2°34.399 5.3 311 15 101630 83
2005-05-26 07:36:54 51°20.887 2°34.368 5.5 310 15 101630 83
2005-05-26 07:36:58 51°20.896 2°34.343 5.8 314 15 101630 83
2005-05-26 07:37:04 51°20.908 2°34.313 5.7 312 15 101630 83
2005-05-26 07:37:09 51°20.919 2°34.285 5.4 310 15 101630 83
2005-05-26 07:37:14 51°20.931 2°34.26 4.5 313 15 101630 83
2005-05-26 07:37:18 51°20.943 2°34.238 4.5 310 15 101630 83
2005-05-26 07:37:24 51°20.958 2°34.212 4.5 312 15 101630 83
2005-05-26 07:37:29 51°20.971 2°34.189 4.2 310 15 101630 83
2005-05-26 07:37:34 51°20.985 2°34.166 4.4 309 14.9 101640 83
2005-05-26 07:37:39 51°21.001 2°34.142 4.1 306 14.9 101640 83
2005-05-26 07:37:44 51°21.014 2°34.122 4.1 309 15 101630 83
2005-05-26 07:37:49 51°21.029 2°34.1 4 307 15 101630 83
2005-05-26 07:37:54 51°21.044 2°34.08 3.5 312 14.9 101640 83
2005-05-26 07:37:59 51°21.061 2°34.058 3.7 308 14.9 101640 83
2005-05-26 07:38:04 51°21.075 2°34.04 3.2 306 14.9 101640 83
2005-05-26 07:38:08 51°21.089 2°34.023 3.2 308 14.9 101640 83
2005-05-26 07:38:14 51°21.107 2°34.003 3 314 14.9 101640 83
2005-05-26 07:38:19 51°21.125 2°33.983 3 311 14.9 101640 83
2005-05-26 07:38:24 51°21.14 2°33.967 2.9 311 14.9 101640 83
2005-05-26 07:38:29 51°21.156 2°33.95 3 229 14.9 101640 83
2005-05-26 07:38:34 51°21.173 2°33.932 2.7 311 14.9 101640 83
2005-05-26 07:38:39 51°21.191 2°33.913 2.9 228 14.9 101640 83
2005-05-26 07:38:44 51°21.206 2°33.897 3 44 14.9 101640 83
2005-05-26 07:38:49 51°21.222 2°33.88 3 227 14.9 101640 83
2005-05-26 07:38:54 51°21.239 2°33.862 2.6 316 14.9 101640 84
2005-05-26 07:38:59 51°21.255 2°33.845 2.8 313 14.9 101640 84
2005-05-26 07:39:04 51°21.272 2°33.827 2.5 313 14.9 101640 84
2005-05-26 07:39:08 51°21.286 2°33.812 2.7 314 14.9 101640 84
2005-05-26 07:39:14 51°21.305 2°33.793 2.6 313 14.9 101640 84
2005-05-26 07:39:18 51°21.321 2°33.779 1.9 312 14.9 101640 84
2005-05-26 07:39:24 51°21.342 2°33.763 2 228 14.9 101640 84
2005-05-26 07:39:29 51°21.358 2°33.751 1.5 317 14.9 101640 84
2005-05-26 07:39:34 51°21.376 2°33.739 1.3 327 14.9 101640 84
2005-05-26 07:39:39 51°21.393 2°33.727 1.3 324 14.9 101640 84
2005-05-26 07:39:44 51°21.412 2°33.715 1.3 324 14.9 101640 84
2005-05-26 07:39:49 51°21.431 2°33.703 1.3 336 14.9 101640 84
2005-05-26 07:39:54 51°21.448 2°33.693 1.5 327 14.9 101640 84
2005-05-26 07:39:59 51°21.465 2°33.681 1.4 326 14.9 101640 84
2005-05-26 07:40:04 51°21.484 2°33.669 1.3 328 14.9 101640 84
2005-05-26 07:40:09 51°21.502 2°33.657 1.2 328 14.9 101640 84
2005-05-26 07:40:14 51°21.52 2°33.645 1.4 327 14.9 101640 84
2005-05-26 07:40:19 51°21.54 2°33.633 1.7 343 14.9 101640 84
2005-05-26 07:40:24 51°21.557 2°33.623 1.6 337 14.9 101640 84
2005-05-26 07:40:29 51°21.576 2°33.609 1.7 327 14.9 101640 84
2005-05-26 07:40:34 51°21.593 2°33.599 1.4 325 14.9 101640 84
2005-05-26 07:40:39 51°21.613 2°33.586 1.6 343 14.9 101640 84
2005-05-26 07:40:44 51°21.629 2°33.575 1.6 329 14.9 101640 84
2005-05-26 07:40:48 51°21.646 2°33.565 1.5 336 14.9 101640 84
2005-05-26 07:40:54 51°21.666 2°33.552 1.4 336 14.9 101640 84
2005-05-26 07:40:59 51°21.684 2°33.541 1.2 330 14.9 101640 84
2005-05-26 07:41:04 51°21.705 2°33.529 1.5 328 14.9 101640 84
2005-05-26 07:41:08 51°21.72 2°33.52 1.6 315 14.9 101640 84
2005-05-26 07:41:14 51°21.74 2°33.506 1.5 324 14.9 101640 84
2005-05-26 07:41:19 51°21.76 2°33.494 1.4 322 14.9 101640 84
2005-05-26 07:41:24 51°21.776 2°33.483 1.4 317 14.9 101640 84
2005-05-26 07:41:28 51°21.793 2°33.473 1.4 322 14.9 101640 84
2005-05-26 07:41:34 51°21.813 2°33.461 1.3 314 14.9 101630 84
2005-05-26 07:41:39 51°21.833 2°33.447 1.5 322 14.9 101630 84
2005-05-26 07:41:44 51°21.85 2°33.436 1.6 336 14.9 101640 84
2005-05-26 07:41:49 51°21.867 2°33.423 1.4 227 14.9 101640 84
2005-05-26 07:41:54 51°21.885 2°33.411 1.5 227 14.9 101640 84
2005-05-26 07:41:59 51°21.904 2°33.399 1.4 227 14.9 101640 84
2005-05-26 07:42:04 51°21.922 2°33.388 1.2 319 14.9 101630 84
2005-05-26 07:42:09 51°21.942 2°33.375 1.5 318 14.9 101630 84
2005-05-26 07:42:14 51°21.959 2°33.364 1.3 321 14.9 101640 84
2005-05-26 07:42:19 51°21.979 2°33.35 1.4 318 14.9 101640 84
2005-05-26 07:42:24 51°21.995 2°33.339 1.3 229 14.9 101640 84
2005-05-26 07:42:29 51°22.014 2°33.326 1.5 328 14.9 101640 84
2005-05-26 07:42:34 51°22.031 2°33.313 1.8 230 14.9 101630 84
2005-05-26 07:42:39 51°22.051 2°33.297 1.8 306 14.9 101630 84
2005-05-26 07:42:44 51°22.067 2°33.283 1.8 303 14.9 101640 84
2005-05-26 07:42:49 51°22.084 2°33.268 2.1 300 14.9 101640 84
2005-05-26 07:42:53 51°22.098 2°33.256 2.1 298 14.9 101640 84
2005-05-26 07:42:59 51°22.119 2°33.236 2.3 296 14.9 101640 84
2005-05-26 07:43:04 51°22.137 2°33.22 2.6 295 14.9 101630 84
2005-05-26 07:43:09 51°22.156 2°33.202 2.3 313 14.9 101630 84
2005-05-26 07:43:12 51°22.166 2°33.192 2.3 291 14.9 101630 84
2005-05-26 07:43:19 51°22.191 2°33.169 2.5 294 14.9 101630 84
2005-05-26 07:43:24 51°22.206 2°33.154 2.4 301 14.9 101630 84
2005-05-26 07:43:28 51°22.221 2°33.137 3.3 298 14.9 101630 84
2005-05-26 07:43:34 51°22.238 2°33.115 3.3 299 14.9 101630 84
2005-05-26 07:43:38 51°22.252 2°33.095 4.5 301 14.9 101630 84
2005-05-26 07:43:44 51°22.267 2°33.069 4.2 300 14.9 101630 84
2005-05-26 07:43:49 51°22.281 2°33.045 4.9 296 14.9 101630 84
2005-05-26 07:43:54 51°22.295 2°33.021 4.7 297 14.9 101630 84
2005-05-26 07:43:59 51°22.31 2°32.994 5.4 302 14.9 101630 84
2005-05-26 07:44:04 51°22.321 2°32.971 5.3 300 14.9 101630 84